Temp
3 3 2 1 0 -0 -1 -2 -3 -3 -3 -2 -2 -1 -2 -3 -4 -5 -5 -5 -5 -5 -5 -5 -5 -5 -5 -5 -5 -5 -5 -4 -4 -4 -3 -3 -3 -2
2 2 1 0 -0 -1 -2 -3 -4 -4 -4 -4 -4 -4 -4 -4 -5 -5 -5 -5 -5 -6 -6 -6 -5 -6 -6 -6 -6 -5 -5 -5 -5 -4 -4 -4 -3 -3
1 0 0 -0 -1 -2 -3 -4 -4 -5 -5 -5 -5 -5 -5 -6 -6 -6 -6 -6 -6 -6 -6 -6 -6 -6 -6 -6 -6 -6 -6 -5 -5 -5 -4 -4 -4 -4
0 -0 -1 -2 -3 -4 -4 -5 -5 -5 -6 -6 -6 -6 -6 -6 -6 -6 -6 -7 -7 -6 -6 -6 -6 -6 -6 -6 -6 -6 -6 -6 -5 -5 -5 -5 -5 -5
-0 -1 -2 -3 -4 -5 -5 -6 -6 -6 -6 -6 -6 -6 -7 -7 -7 -7 -7 -6 -7 -7 -7 -7 -7 -7 -7 -6 -6 -6 -6 -6 -6 -6 -6 -6 -5 -5
-2 -3 -4 -4 -5 -6 -6 -7 -7 -7 -7 -7 -7 -7 -7 -7 -7 -7 -7 -7 -7 -8 -7 -7 -7 -7 -7 -7 -7 -7 -7 -7 -7 -6 -6 -6 -6 -6
-3 -4 -5 -5 -6 -7 -7 -7 -7 -7 -8 -8 -8 -8 -7 -7 -7 -7 -8 -8 -8 -7 -8 -6 -8 -7 -7 -7 -7 -7 -7 -7 -7 -6 -6 -6 -6 -6
-4 -4 -5 -6 -6 -7 -7 -7 -7 -8 -8 -8 -7 -7 -8 -8 -8 -8 -8 -9 -8 -8 -8 -8 -7 -7 -8 -7 -8 -7 -7 -7 -7 -6 -6 -6 -6 -6
-4 -5 -6 -6 -7 -7 -8 -8 -8 -8 -8 -8 -8 -8 -8 -8 -8 -9 -8 -9 -9 -8 -9 -9 -7 -8 -7 -6 -7 -7 -7 -7 -6 -6 -6 -6 -6 -6
-6 -6 -7 -7 -7 -7 -8 -8 -8 -8 -8 -8 -8 -8 -9 -9 -8 -8 -9 -9 -9 -8 -9 -9 -8 -8 -8 -8 -5 -5 -4 -6 -7 -6 -6 -6 -6 -6
-6 -6 -7 -7 -7 -7 -8 -8 -8 -9 -9 -8 -9 -9 -8 -8 -8 -9 -9 -9 -9 -8 -9 -10 -9 -9 -8 -6 -6 -6 -6 -5 -4 -5 -6 -6 -6 -6
-7 -7 -7 -7 -7 -8 -8 -8 -9 -9 -9 -9 -9 -9 -9 -9 -9 -9 -9 -9 -9 -10 -9 -10 -10 -10 -10 -9 -7 -5 -4 -4 -4 -4 -4 -6 -6 -5
-8 -8 -8 -8 -8 -8 -8 -9 -10 -9 -9 -9 -10 -10 -9 -9 -10 -10 -10 -10 -10 -10 -7 -10 -11 -10 -11 -10 -7 -6 -6 -4 -4 -4 -3 -4 -5 -6
-8 -8 -9 -9 -8 -9 -9 -10 -10 -9 -10 -10 -10 -10 -10 -9 -9 -9 -8 -9 -10 -10 -8 -9 -10 -10 -10 -10 -10 -6 -5 -5 -4 -4 -4 -5 -6 -5
-9 -9 -9 -9 -9 -10 -10 -10 -10 -10 -10 -11 -11 -10 -10 -9 -9 -8 -8 -9 -9 -8 -7 -8 -9 -10 -10 -10 -9 -9 -9 -6 -4 -5 -6 -6 -6 -5
-9 -9 -10 -10 -10 -10 -10 -10 -10 -11 -10 -10 -10 -9 -9 -9 -9 -9 -9 -9 -10 -7 -7 -7 -8 -9 -9 -9 -8 -8 -8 -8 -7 -6 -6 -6 -5 -5
-10 -10 -10 -10 -10 -10 -11 -10 -10 -10 -10 -10 -10 -9 -9 -10 -8 -8 -9 -10 -11 -9 -8 -6 -7 -9 -9 -8 -8 -7 -7 -7 -6 -6 -6 -6 -4 -4
-10 -10 -11 -11 -11 -11 -11 -10 -10 -10 -9 -9 -9 -9 -10 -9 -9 -8 -9 -9 -10 -9 -9 -8 -9 -8 -8 -8 -7 -7 -7 -7 -6 -6 -6 -6 -6 -4
-11 -11 -12 -12 -12 -12 -11 -10 -10 -9 -9 -9 -9 -9 -9 -9 -9 -8 -8 -9 -9 -9 -8 -9 -9 -8 -8 -7 -7 -7 -7 -6 -6 -6 -6 -6 -6 -4
-12 -12 -12 -12 -11 -11 -10 -10 -10 -9 -8 -8 -8 -8 -8 -9 -8 -8 -8 -9 -9 -8 -8 -8 -8 -8 -8 -7 -8 -5 -5 -7 -6 -6 -6 -5 -5 -5
-12 -12 -12 -12 -11 -10 -10 -10 -9 -8 -8 -8 -8 -8 -8 -8 -8 -8 -8 -8 -9 -8 -8 -8 -8 -8 -7 -7 -7 -7 -5 -6 -6 -6 -6 -6 -5 -5
-12 -12 -11 -11 -10 -10 -9 -9 -9 -8 -8 -8 -8 -8 -8 -8 -8 -8 -8 -8 -7 -8 -8 -8 -7 -7 -7 -7 -7 -7 -6 -6 -5 -5 -5 -5 -5 -5
-11 -11 -10 -10 -10 -9 -9 -9 -8 -8 -8 -8 -8 -8 -7 -7 -7 -8 -7 -7 -7 -7 -8 -8 -7 -7 -7 -7 -7 -6 -6 -6 -6 -5 -5 -5 -5 -4
Height
1485 1483 1481 1479 1477 1474 1472 1469 1466 1458 1452 1450 1449 1448 1443 1439 1434 1430 1424 1420 1417 1413 1409 1405 1401 1397 1393 1389 1385 1381 1379 1376 1374 1373 1371 1370 1370 1370
1480 1479 1477 1475 1472 1469 1467 1464 1461 1457 1447 1446 1443 1440 1437 1432 1427 1423 1418 1414 1410 1406 1401 1396 1392 1388 1384 1379 1376 1372 1369 1366 1363 1361 1360 1358 1357 1357
1476 1474 1472 1469 1466 1464 1461 1457 1454 1451 1443 1437 1436 1433 1429 1424 1420 1416 1412 1406 1400 1397 1393 1388 1383 1379 1375 1370 1366 1362 1359 1355 1352 1350 1348 1346 1345 1345
1472 1469 1467 1464 1461 1458 1455 1452 1449 1445 1440 1431 1430 1425 1422 1418 1413 1408 1403 1398 1392 1388 1384 1379 1375 1370 1365 1360 1356 1352 1348 1344 1342 1339 1337 1335 1333 1332
1467 1464 1462 1459 1456 1453 1450 1446 1443 1439 1435 1427 1420 1419 1415 1412 1405 1401 1397 1391 1386 1381 1376 1370 1365 1358 1354 1350 1346 1342 1338 1334 1331 1328 1325 1322 1321 1319
1462 1459 1457 1454 1450 1447 1443 1440 1437 1432 1428 1422 1415 1410 1407 1404 1400 1394 1387 1384 1377 1372 1367 1359 1356 1349 1345 1340 1335 1330 1326 1323 1319 1316 1313 1310 1308 1306
1457 1454 1452 1449 1445 1442 1438 1435 1431 1426 1422 1416 1410 1404 1399 1396 1393 1388 1381 1375 1368 1362 1357 1348 1345 1339 1333 1328 1323 1318 1315 1312 1309 1305 1302 1299 1296 1294
1452 1449 1446 1443 1440 1437 1434 1431 1428 1422 1417 1412 1405 1400 1394 1391 1386 1381 1374 1367 1357 1356 1350 1341 1337 1327 1323 1318 1313 1310 1306 1302 1298 1294 1291 1288 1285 1282
1447 1444 1441 1438 1435 1431 1427 1424 1421 1417 1413 1407 1400 1396 1389 1385 1380 1373 1367 1362 1352 1346 1344 1335 1327 1318 1314 1308 1303 1299 1295 1290 1286 1283 1280 1277 1273 1270
1442 1439 1435 1432 1429 1426 1421 1417 1412 1408 1404 1400 1395 1389 1384 1378 1373 1368 1361 1354 1345 1338 1338 1328 1319 1309 1303 1298 1294 1289 1284 1280 1277 1274 1270 1267 1263 1259
1437 1434 1431 1427 1424 1421 1416 1409 1404 1400 1396 1392 1388 1382 1378 1373 1369 1362 1355 1349 1338 1329 1329 1321 1311 1304 1294 1285 1282 1278 1276 1272 1268 1263 1259 1255 1251 1247
1431 1428 1426 1423 1420 1416 1411 1404 1397 1392 1388 1383 1378 1373 1370 1365 1362 1358 1351 1344 1336 1322 1320 1316 1306 1303 1286 1278 1274 1270 1265 1261 1257 1253 1248 1244 1240 1234
1426 1423 1420 1418 1414 1410 1405 1399 1393 1388 1383 1378 1372 1367 1363 1358 1353 1349 1344 1339 1331 1319 1314 1311 1300 1295 1291 1274 1263 1261 1257 1250 1246 1241 1237 1233 1227 1223
1422 1419 1415 1412 1408 1402 1397 1392 1388 1384 1378 1373 1367 1361 1356 1350 1345 1340 1334 1328 1323 1314 1306 1304 1295 1289 1281 1271 1260 1250 1247 1242 1237 1230 1225 1218 1212 1207
1419 1415 1410 1405 1400 1395 1390 1387 1383 1378 1374 1368 1362 1356 1351 1344 1337 1331 1325 1319 1313 1306 1301 1295 1289 1282 1277 1267 1256 1247 1241 1233 1229 1222 1215 1208 1201 1193
1413 1407 1403 1399 1395 1391 1386 1382 1379 1375 1370 1364 1357 1351 1344 1338 1331 1325 1318 1311 1304 1296 1294 1289 1282 1277 1268 1261 1253 1241 1236 1230 1220 1214 1207 1197 1190 1182
1407 1401 1396 1393 1389 1385 1381 1378 1374 1369 1364 1358 1352 1345 1339 1332 1325 1320 1313 1306 1300 1291 1284 1279 1274 1268 1261 1254 1244 1235 1229 1222 1215 1206 1199 1188 1178 1172
1401 1396 1393 1389 1385 1382 1378 1373 1369 1364 1359 1353 1347 1340 1333 1327 1320 1314 1309 1302 1295 1287 1280 1273 1265 1258 1250 1244 1242 1231 1224 1216 1207 1199 1191 1182 1170 1163
1397 1394 1390 1386 1383 1379 1375 1370 1364 1359 1355 1349 1342 1336 1329 1323 1317 1310 1303 1297 1289 1283 1275 1269 1263 1256 1246 1235 1226 1228 1220 1209 1199 1190 1186 1177 1166 1157
1394 1391 1388 1384 1380 1376 1371 1366 1360 1355 1350 1344 1338 1332 1326 1319 1312 1306 1300 1293 1286 1278 1270 1265 1259 1253 1246 1237 1225 1214 1212 1205 1196 1185 1175 1167 1162 1154
1391 1388 1384 1381 1377 1373 1368 1363 1357 1352 1346 1340 1334 1328 1322 1316 1309 1303 1296 1290 1284 1276 1268 1260 1255 1249 1241 1233 1224 1214 1205 1201 1194 1183 1172 1163 1155 1145
1387 1384 1381 1377 1374 1369 1364 1359 1353 1347 1341 1336 1330 1324 1319 1312 1305 1299 1293 1286 1279 1273 1266 1258 1250 1243 1237 1230 1221 1212 1202 1194 1187 1180 1172 1166 1157 1146
1384 1381 1378 1374 1370 1366 1361 1355 1349 1344 1338 1332 1326 1320 1314 1308 1302 1296 1290 1283 1277 1271 1264 1254 1247 1241 1235 1228 1220 1211 1202 1192 1183 1174 1168 1162 1155 1149
Wind_Speed
15 16 17 17 19 20 21 21 21 26 29 24 21 14 27 31 30 30 34 33 31 33 35 35 36 36 37 37 37 37 37 37 37 37 38 40 41 41
16 17 18 19 20 22 21 21 22 25 33 28 28 27 28 30 32 31 33 31 33 35 37 35 36 36 36 36 36 37 37 37 38 38 38 39 40 40
17 18 20 21 22 22 22 23 23 24 31 34 30 28 30 32 32 32 33 39 38 36 36 35 34 34 35 36 36 37 38 38 38 39 39 39 40 40
18 20 21 19 22 23 21 21 24 26 29 36 32 33 32 32 34 35 34 34 39 32 32 34 35 36 36 36 36 37 37 38 38 39 39 41 41 41
19 20 21 20 22 22 21 23 24 26 29 33 37 33 34 35 36 30 39 30 33 33 34 35 36 37 35 35 36 36 37 38 39 39 40 40 41 42
19 20 21 22 22 21 24 24 24 28 29 32 37 41 37 35 30 35 34 33 34 37 37 40 35 35 34 36 37 37 36 35 36 36 37 38 39 40
20 20 20 21 25 23 22 24 27 30 33 37 38 38 35 36 36 31 35 35 44 38 34 40 32 43 42 38 36 34 32 33 35 36 37 39 40 40
21 21 21 21 20 20 22 23 24 29 34 37 40 35 41 34 33 34 43 39 38 42 29 44 41 44 43 41 35 34 35 34 34 35 36 37 38 39
21 21 20 19 21 22 23 23 26 29 28 33 38 34 35 36 41 42 41 39 47 47 41 40 43 47 42 41 40 35 36 33 31 31 32 34 34 36
19 20 21 22 21 23 27 30 33 33 30 30 32 34 37 38 37 37 39 43 43 42 33 36 46 44 42 45 44 31 25 28 28 30 34 37 37 38
17 19 21 22 22 22 28 34 35 35 32 26 28 31 32 32 31 31 34 38 41 46 39 37 36 39 49 48 40 33 36 34 34 32 33 34 36 38
18 20 19 21 21 25 29 34 37 35 32 33 34 33 29 29 25 25 30 34 39 47 38 31 42 34 33 38 37 45 40 37 36 35 34 34 34 39
20 21 22 21 25 27 29 31 32 28 30 33 31 30 31 29 27 26 29 31 37 43 42 33 40 42 31 42 48 47 43 41 40 37 35 35 36 35
22 24 26 27 28 29 28 24 23 25 27 26 30 31 30 31 33 33 33 33 32 37 37 33 37 38 41 44 47 49 44 41 38 41 39 44 45 43
22 24 28 28 26 26 22 22 21 22 24 28 31 31 32 35 35 33 32 31 32 33 32 30 33 34 35 42 47 48 44 44 35 40 45 49 47 45
25 29 29 24 21 21 21 20 21 22 23 28 30 32 34 34 32 31 34 34 35 37 32 31 31 29 33 37 40 45 42 39 43 44 47 48 45 43
27 29 24 21 23 22 21 21 23 25 26 27 31 33 33 32 32 33 34 35 33 36 38 36 33 32 33 34 39 40 39 39 42 44 44 45 45 43
24 22 20 21 21 22 23 26 28 28 28 30 32 32 33 32 35 35 33 33 33 36 37 39 39 38 37 34 25 29 36 40 41 41 40 40 43 42
19 20 21 21 21 22 24 28 31 30 29 31 32 32 32 33 33 35 36 35 36 35 38 39 35 36 36 37 46 29 32 38 42 42 37 38 38 40
17 19 21 21 21 23 26 30 32 30 30 32 32 31 30 32 34 35 36 35 34 37 39 36 34 36 34 37 42 42 33 37 38 42 42 36 33 33
18 20 20 20 21 24 28 30 30 30 31 31 30 30 32 34 34 34 35 33 31 34 36 39 37 29 30 33 34 39 37 31 29 32 33 32 28 33
19 20 19 20 22 26 29 29 31 31 31 30 30 30 34 33 34 34 32 32 32 34 35 36 35 33 32 32 35 37 39 36 29 23 22 23 22 18
20 20 19 21 24 27 28 30 31 30 29 30 33 34 35 33 32 30 30 30 32 31 33 36 35 30 31 30 30 34 36 34 33 34 31 21 15 12
Wind_Direction
303 304 303 301 296 295 294 292 289 296 298 301 300 276 287 291 296 295 296 304 300 298 298 297 296 297 295 293 291 290 288 286 283 281 278 274 272 271
300 300 297 297 296 295 295 288 283 283 287 291 295 294 294 294 292 299 302 299 293 295 297 297 295 294 293 293 291 290 288 286 284 282 279 276 273 270
298 299 299 300 299 296 293 293 289 287 287 293 295 299 297 299 303 302 294 293 300 298 296 295 296 296 295 292 291 288 286 285 283 282 279 278 275 273
298 297 298 297 293 298 298 292 291 291 292 295 299 301 303 305 304 295 301 300 301 301 300 298 298 297 294 293 291 288 286 285 284 283 281 277 274 273
299 297 295 294 297 298 292 294 295 296 295 296 300 303 302 304 305 307 305 303 298 296 301 298 300 298 298 296 292 289 287 286 284 282 280 277 275 272
297 296 296 296 298 294 291 295 299 299 300 300 300 304 305 307 308 308 304 303 302 303 306 308 301 298 298 296 293 290 289 287 285 283 282 280 277 273
296 297 296 292 292 297 297 301 301 301 301 302 302 302 305 310 309 307 304 303 306 312 299 313 303 305 310 306 298 295 293 290 287 285 283 281 279 275
298 296 296 297 297 293 297 297 298 301 301 301 301 302 304 304 304 304 305 307 304 307 306 306 312 311 309 310 301 295 293 290 287 285 283 282 279 276
300 299 298 297 297 298 299 299 297 300 296 298 298 298 298 297 299 305 307 302 300 301 305 303 312 308 313 314 314 301 295 290 289 288 286 284 283 280
298 296 298 303 301 306 307 306 307 305 307 299 294 295 295 299 303 303 300 297 301 304 302 293 308 309 315 309 315 316 313 309 299 295 291 286 283 282
300 299 302 303 304 305 306 306 307 304 304 297 292 296 299 298 295 298 298 302 299 304 305 300 306 301 312 314 321 321 317 311 311 308 298 292 287 285
305 302 304 304 305 306 307 308 306 305 304 307 307 305 301 301 301 296 297 293 293 300 310 302 305 309 309 307 309 315 318 318 316 317 313 303 296 289
310 309 302 303 306 308 305 300 300 306 304 301 306 304 308 311 311 302 295 294 294 293 309 304 301 304 293 300 309 313 316 317 317 315 316 316 311 293
309 308 307 309 308 305 304 305 303 303 305 310 305 308 314 318 318 314 311 308 306 300 312 310 300 304 301 297 297 314 315 314 316 316 319 321 314 310
308 305 304 307 307 309 312 308 308 314 309 309 311 313 318 319 320 322 322 319 313 314 319 319 312 308 300 296 295 302 304 312 316 319 316 312 312 316
309 309 308 310 307 309 312 317 314 312 311 306 312 319 323 324 325 328 324 325 320 322 325 324 321 313 304 304 303 298 301 295 315 310 309 316 319 321
309 307 319 313 312 317 316 317 321 324 323 323 322 324 327 329 327 329 328 325 313 319 325 331 330 323 317 311 301 305 305 307 314 314 316 316 322 326
310 316 311 312 313 315 318 324 329 330 329 326 328 331 329 329 329 330 329 327 318 323 322 330 330 325 323 313 303 301 304 311 319 323 321 311 314 330
314 312 311 313 313 316 321 328 330 331 329 331 331 333 332 330 330 333 333 329 325 325 328 328 321 321 314 313 321 318 309 320 323 318 315 317 314 329
312 313 312 314 316 322 329 331 330 330 332 333 334 333 334 334 333 333 334 331 329 327 325 329 324 320 314 312 315 323 336 318 322 319 320 321 323 334
316 314 316 316 324 330 332 332 331 332 334 332 334 334 336 336 334 333 333 333 325 329 325 326 328 329 327 329 314 318 330 340 335 328 329 327 329 337
316 317 321 326 331 333 333 333 334 337 337 337 337 334 335 336 334 334 334 332 332 332 325 328 340 340 336 332 323 324 333 341 348 351 350 344 337 327
322 324 329 334 335 334 334 335 337 338 339 337 335 334 338 335 336 336 335 333 332 328 331 335 341 343 342 339 334 335 339 346 351 357 2 12 7 8